Flag for Australia Weather past 2 weeks in Kalgoorlie, Western Australia, Australia

Now
55 °F

Partly sunny.


Feels Like: 53 °F
Forecast: 42 / 59 °F
Wind: 10 mph from Southwest

Location: Kalgoorlie Boulder Amo

Current Time: Jul 23, 2014 at 4:12:57 PM

Latest Report: Jul 23, 2014 at 1:30 PM


Visibility: N/A

Pressure: 30.07 "Hg

Humidity: 63%

Dew point: 43 °F

Location of KalgoorlieLocation

Historic Weather in Kalgoorlie — Graph

°F

Kalgoorlie temperature yesterday

Maximum temperature yesterday: 57 °F (at 3:00 PM)
Minimum temperature yesterday: 43 °F (at 2:00 AM)
Average temperature yesterday: 49 °F

Past Weeks' High & Low Weather Summary

 TemperatureHumidityPressure
High64 °F (Jul 13, 3:30 PM)100% (Jul 11, 5:30 AM)30.42 "Hg (Jul 11, 5:30 AM)
Low34 °F (Jul 11, 6:00 AM)34% (Jul 13, 3:30 PM)29.86 "Hg (Jul 14, 12:00 PM)
Average50 °F72%30.14 "Hg
* Reported Jul 8 1:00 PM — Jul 23 1:00 PM, Kalgoorlie, Weather by CustomWeather, © 2014

Note: Actual official high and low records may vary slightly from our data, if they occured in-between our weather recording intervals... More about our weather records

Advertising

Kalgoorlie weather history for previous 24 hours

 ConditionsComfort  
Time TempWeatherWind HumidityBarometerVisibility
1:00 PM
Jul 23
57 °FPartly sunny.10 mph59%30.04 "HgN/A
12:30 PM55 °FPartly sunny.8 mph63%30.04 "HgN/A
12:00 PM54 °FPartly sunny.10 mph67%30.07 "HgN/A
11:30 AM54 °FPartly sunny.10 mph67%30.09 "HgN/A
11:00 AM54 °FPartly sunny.12 mph67%30.09 "HgN/A
10:30 AM52 °FPartly sunny.10 mph67%30.12 "HgN/A
10:00 AM52 °FPartly sunny.15 mph72%30.12 "HgN/A
9:30 AM50 °FPartly sunny.12 mph76%30.12 "HgN/A
9:00 AM50 °FPartly sunny.13 mph76%30.12 "HgN/A
8:30 AM48 °FPartly sunny.13 mph82%30.09 "HgN/A
7:30 AM48 °FMostly cloudy.10 mph76%30.09 "HgN/A
7:00 AM46 °FPartly sunny.9 mph82%30.09 "HgN/A
12:30 AM45 °FClear.9 mph81%30.04 "HgN/A
12:00 AM45 °FClear.8 mph81%30.04 "HgN/A
11:30 PM
Jul 22
45 °FPassing clouds.8 mph81%30.04 "HgN/A
11:00 PM45 °FPassing clouds.6 mph81%30.04 "HgN/A
10:30 PM45 °FClear.7 mph81%30.04 "HgN/A
10:00 PM45 °FClear.7 mph81%30.04 "HgN/A
9:30 PM46 °FClear.8 mph76%30.04 "HgN/A
9:00 PM46 °FClear.6 mph82%30.04 "HgN/A
8:30 PM46 °FClear.6 mph82%30.04 "HgN/A
8:00 PM48 °FPassing clouds.6 mph71%30.04 "HgN/A
7:30 PM48 °FPassing clouds.8 mph71%30.01 "HgN/A
7:00 PM48 °FPassing clouds.7 mph76%30.01 "HgN/A
6:30 PM50 °FOvercast.8 mph71%30.01 "HgN/A
6:00 PM48 °FPartly cloudy.9 mph76%29.98 "HgN/A
5:30 PM50 °FPassing clouds.9 mph76%29.98 "HgN/A
5:00 PM52 °FClear.10 mph77%29.95 "HgN/A
4:30 PM52 °FPassing clouds.9 mph82%29.95 "HgN/A
4:00 PM50 °FLots of rain. Cloudy.10 mph82%29.92 "Hg6 mi
Weather by CustomWeather, © 2014

See weather overviewHow to use our weather pages